START_TIME,STEP,MOV.,M35,t_acc.,PL05,t_acc.,PL06,t_acc.,PL07,t_acc.
1979-07-03 21:00:24.740 ,0,0,0.,4.8,37.,4.8,1.,4.8,1.,4.8
1979-07-03 21:00:29.540 ,0,0,0.,4.8,39.,4.8,2.,4.8,1.,4.8
1979-07-03 21:00:34.340 ,0,0,0.,4.8,29.,4.8,2.,4.8,0.,4.8
1979-07-03 21:00:39.140 ,0,0,0.,4.8,41.,4.8,3.,4.8,3.,4.8
1979-07-03 21:00:43.940 ,0,0,0.,4.8,23.,4.8,3.,4.8,1.,4.8
1979-07-03 21:00:48.740 ,0,0,0.,4.8,33.,4.8,2.,4.8,1.,4.8
1979-07-03 21:00:53.540 ,0,0,0.,4.8,39.,4.8,1.,4.8,0.,4.8
1979-07-03 21:00:58.340 ,0,0,0.,4.8,30.,4.8,0.,4.8,0.,4.8
1979-07-03 21:01:03.140 ,0,0,0.,4.8,35.,4.8,4.,4.8,0.,4.8
1979-07-03 21:01:07.940 ,0,0,0.,4.8,36.,4.8,2.,4.8,0.,4.8
1979-07-03 21:01:12.740 ,0,0,0.,4.8,30.,4.8,3.,4.8,0.,4.8
1979-07-03 21:01:17.540 ,0,0,0.,4.8,38.,4.8,2.,4.8,3.,4.8
1979-07-03 21:01:22.340 ,0,0,0.,4.8,34.,4.8,2.,4.8,0.,4.8
1979-07-03 21:01:27.140 ,0,0,0.,4.8,34.,4.8,5.,4.8,0.,4.8
1979-07-03 21:01:31.940 ,0,0,0.,4.8,31.,4.8,1.,4.8,1.,4.8
1979-07-03 21:01:36.740 ,1,0,0.,4.8,26.,4.8,0.,4.8,0.,4.8
1979-07-03 21:01:41.540 ,1,0,0.,4.8,40.,4.8,0.,4.8,1.,4.8
1979-07-03 21:01:46.340 ,1,0,0.,4.8,31.,4.8,2.,4.8,0.,4.8
1979-07-03 21:01:51.140 ,1,0,0.,4.8,36.,4.8,2.,4.8,0.,4.8
1979-07-03 21:01:55.940 ,1,0,0.,4.8,30.,4.8,3.,4.8,0.,4.8
1979-07-03 21:02:00.740 ,1,0,0.,4.8,41.,4.8,0.,4.8,2.,4.8
1979-07-03 21:02:05.540 ,1,0,0.,4.8,33.,4.8,2.,4.8,1.,4.8
1979-07-03 21:02:10.340 ,1,0,0.,4.8,45.,4.8,1.,4.8,0.,4.8
1979-07-03 21:02:15.140 ,1,0,0.,4.8,46.,4.8,3.,4.8,1.,4.8
1979-07-03 21:02:19.940 ,1,0,0.,4.8,33.,4.8,1.,4.8,0.,4.8
1979-07-03 21:03:12.740 ,0,0,0.,4.8,32.,4.8,4.,4.8,1.,4.8
1979-07-03 21:03:17.540 ,0,0,0.,4.8,28.,4.8,2.,4.8,0.,4.8
1979-07-03 21:03:22.340 ,0,0,0.,4.8,18.,4.8,2.,4.8,1.,4.8
1979-07-03 21:03:27.140 ,0,0,0.,4.8,20.,4.8,0.,4.8,0.,4.8
1979-07-03 21:03:31.940 ,0,0,0.,4.8,25.,4.8,3.,4.8,1.,4.8
1979-07-03 21:03:36.740 ,0,0,0.,4.8,28.,4.8,1.,4.8,1.,4.8
1979-07-03 21:03:41.540 ,0,0,0.,4.8,21.,4.8,2.,4.8,0.,4.8
1979-07-03 21:03:46.340 ,0,0,0.,4.8,20.,4.8,3.,4.8,1.,4.8
1979-07-03 21:03:51.140 ,0,0,0.,4.8,19.,4.8,2.,4.8,1.,4.8
1979-07-03 21:03:55.940 ,0,0,0.,4.8,18.,4.8,1.,4.8,1.,4.8
1979-07-03 21:04:00.740 ,4,0,0.,4.8,34.,4.8,3.,4.8,0.,4.8
1979-07-03 21:04:05.540 ,4,0,0.,4.8,25.,4.8,2.,4.8,0.,4.8
1979-07-03 21:04:10.340 ,4,0,0.,4.8,12.,4.8,1.,4.8,1.,4.8
1979-07-03 21:04:15.140 ,4,0,0.,4.8,10.,4.8,0.,4.8,0.,4.8
1979-07-03 21:04:19.940 ,4,0,1.,4.8,13.,4.8,1.,4.8,2.,4.8
1979-07-03 21:04:24.740 ,4,0,0.,4.8,9.,4.8,3.,4.8,1.,4.8
1979-07-03 21:04:29.540 ,4,0,0.,4.8,17.,4.8,1.,4.8,2.,4.8
1979-07-03 21:04:34.340 ,4,0,0.,4.8,14.,4.8,5.,4.8,0.,4.8
1979-07-03 21:04:39.140 ,4,0,0.,4.8,13.,4.8,3.,4.8,2.,4.8
1979-07-03 21:04:43.940 ,4,0,0.,4.8,12.,4.8,2.,4.8,2.,4.8
1979-07-03 21:04:48.740 ,5,0,0.,4.8,8.,4.8,1.,4.8,1.,4.8
1979-07-03 21:04:53.540 ,5,0,0.,4.8,11.,4.8,5.,4.8,0.,4.8
1979-07-03 21:04:58.340 ,5,0,0.,4.8,5.,4.8,2.,4.8,2.,4.8
1979-07-03 21:05:03.140 ,5,0,0.,4.8,4.,4.8,4.,4.8,3.,4.8
1979-07-03 21:05:07.940 ,5,0,1.,4.8,4.,4.8,3.,4.8,2.,4.8
1979-07-03 21:05:12.740 ,5,0,1.,4.8,2.,4.8,5.,4.8,3.,4.8
1979-07-03 21:05:17.540 ,5,0,0.,4.8,3.,4.8,1.,4.8,4.,4.8
1979-07-03 21:05:22.340 ,5,0,0.,4.8,5.,4.8,1.,4.8,4.,4.8
1979-07-03 21:05:27.140 ,5,0,0.,4.8,7.,4.8,2.,4.8,1.,4.8
1979-07-03 21:05:31.940 ,5,0,0.,4.8,5.,4.8,4.,4.8,1.,4.8
1979-07-03 21:05:36.740 ,6,0,0.,4.8,9.,4.8,1.,4.8,5.,4.8
1979-07-03 21:05:41.540 ,6,0,0.,4.8,7.,4.8,0.,4.8,2.,4.8
1979-07-03 21:05:46.340 ,6,0,0.,4.8,5.,4.8,3.,4.8,2.,4.8
1979-07-03 21:05:51.140 ,6,0,0.,4.8,11.,4.8,1.,4.8,1.,4.8
1979-07-03 21:05:55.940 ,6,0,0.,4.8,4.,4.8,2.,4.8,1.,4.8
1979-07-03 21:06:00.740 ,6,0,0.,4.8,7.,4.8,2.,4.8,1.,4.8
1979-07-03 21:06:05.540 ,6,0,0.,4.8,6.,4.8,4.,4.8,1.,4.8
1979-07-03 21:06:10.340 ,6,0,0.,4.8,7.,4.8,3.,4.8,0.,4.8
1979-07-03 21:06:15.140 ,6,0,0.,4.8,3.,4.8,2.,4.8,3.,4.8
1979-07-03 21:06:19.940 ,6,0,0.,4.8,4.,4.8,3.,4.8,3.,4.8
1979-07-03 21:06:24.740 ,7,0,0.,4.8,7.,4.8,2.,4.8,1.,4.8
1979-07-03 21:06:29.540 ,7,0,0.,4.8,7.,4.8,0.,4.8,4.,4.8
1979-07-03 21:06:34.340 ,7,0,0.,4.8,0.,4.8,0.,4.8,0.,4.8
1979-07-03 21:06:39.140 ,7,0,0.,4.8,1.,4.8,0.,4.8,0.,4.8
1979-07-03 21:06:43.940 ,7,0,0.,4.8,0.,4.8,0.,4.8,0.,4.8
1979-07-03 21:06:48.740 ,7,0,0.,4.8,1.,4.8,0.,4.8,0.,4.8
1979-07-03 21:06:53.540 ,7,0,0.,4.8,1.,4.8,0.,4.8,0.,4.8
1979-07-03 21:06:58.340 ,7,0,0.,4.8,0.,4.8,0.,4.8,0.,4.8
1979-07-03 21:07:03.140 ,7,0,0.,4.8,1.,4.8,0.,4.8,0.,4.8
1979-07-03 21:07:07.940 ,7,0,0.,4.8,0.,4.8,0.,4.8,0.,4.8
1979-07-03 21:07:12.740 ,3,1,0.,4.8,2.,4.8,0.,4.8,1.,4.8
1979-07-03 21:07:17.540 ,3,1,0.,4.8,8.,4.8,2.,4.8,1.,4.8
1979-07-03 21:07:22.340 ,3,1,0.,4.8,8.,4.8,1.,4.8,3.,4.8
1979-07-03 21:07:27.140 ,3,1,0.,4.8,6.,4.8,1.,4.8,2.,4.8
1979-07-03 21:07:31.940 ,3,1,0.,4.8,21.,4.8,3.,4.8,1.,4.8
1979-07-03 21:07:36.740 ,0,1,0.,4.8,17.,4.8,0.,4.8,0.,4.8
1979-07-03 21:07:41.540 ,0,1,0.,4.8,42.,4.8,2.,4.8,1.,4.8
1979-07-03 21:07:46.340 ,0,1,0.,4.8,38.,4.8,2.,4.8,1.,4.8
1979-07-03 21:07:51.140 ,0,1,0.,4.8,25.,4.8,0.,4.8,1.,4.8
1979-07-03 21:07:55.940 ,0,1,0.,4.8,35.,4.8,3.,4.8,0.,4.8
1979-07-03 21:08:00.740 ,4,1,0.,4.8,24.,4.8,0.,4.8,0.,4.8
1979-07-03 21:08:05.540 ,4,1,0.,4.8,31.,4.8,0.,4.8,0.,4.8
1979-07-03 21:08:10.340 ,4,1,0.,4.8,33.,4.8,2.,4.8,0.,4.8
1979-07-03 21:08:15.140 ,4,1,0.,4.8,18.,4.8,0.,4.8,0.,4.8
1979-07-03 21:08:19.940 ,4,1,0.,4.8,17.,4.8,1.,4.8,1.,4.8
1979-07-03 21:08:24.740 ,7,1,0.,4.8,6.,4.8,1.,4.8,2.,4.8
1979-07-03 21:08:29.540 ,7,1,0.,4.8,7.,4.8,2.,4.8,1.,4.8
1979-07-03 21:08:34.340 ,7,1,0.,4.8,5.,4.8,3.,4.8,1.,4.8
1979-07-03 21:08:39.140 ,7,1,0.,4.8,3.,4.8,0.,4.8,2.,4.8
1979-07-03 21:08:43.940 ,7,1,0.,4.8,0.,4.8,0.,4.8,0.,4.8
1979-07-03 21:08:48.740 ,3,1,0.,4.8,3.,4.8,0.,4.8,0.,4.8
1979-07-03 21:08:53.540 ,3,1,0.,4.8,12.,4.8,2.,4.8,2.,4.8
1979-07-03 21:08:58.340 ,3,1,0.,4.8,12.,4.8,2.,4.8,3.,4.8
1979-07-03 21:09:03.140 ,3,1,0.,4.8,6.,4.8,4.,4.8,1.,4.8
1979-07-03 21:09:07.940 ,3,1,0.,4.8,14.,4.8,0.,4.8,1.,4.8
1979-07-03 21:09:12.740 ,0,1,0.,4.8,22.,4.8,1.,4.8,1.,4.8
1979-07-03 21:09:17.540 ,0,1,0.,4.8,33.,4.8,0.,4.8,2.,4.8
1979-07-03 21:09:22.340 ,0,1,0.,4.8,26.,4.8,2.,4.8,1.,4.8
1979-07-03 21:09:27.140 ,0,1,0.,4.8,24.,4.8,1.,4.8,3.,4.8
1979-07-03 21:09:31.940 ,0,1,0.,4.8,38.,4.8,1.,4.8,1.,4.8
1979-07-03 21:10:24.740 ,0,0,0.,4.8,2.,4.8,1.,4.8,0.,4.8
1979-07-03 21:10:29.540 ,0,0,0.,4.8,5.,4.8,1.,4.8,1.,4.8
1979-07-03 21:10:34.340 ,0,0,0.,4.8,1.,4.8,5.,4.8,1.,4.8
1979-07-03 21:10:39.140 ,0,0,0.,4.8,8.,4.8,0.,4.8,2.,4.8
1979-07-03 21:10:43.940 ,0,0,0.,4.8,16.,4.8,2.,4.8,1.,4.8
1979-07-03 21:10:48.740 ,0,0,0.,4.8,28.,4.8,3.,4.8,0.,4.8
1979-07-03 21:10:53.540 ,0,0,0.,4.8,28.,4.8,3.,4.8,2.,4.8
1979-07-03 21:10:58.340 ,0,0,0.,4.8,35.,4.8,1.,4.8,0.,4.8
1979-07-03 21:11:03.140 ,0,0,0.,4.8,40.,4.8,2.,4.8,1.,4.8
1979-07-03 21:11:07.940 ,0,0,0.,4.8,25.,4.8,2.,4.8,0.,4.8
1979-07-03 21:11:12.740 ,4,1,0.,4.8,29.,4.8,1.,4.8,1.,4.8
1979-07-03 21:11:17.540 ,4,1,0.,4.8,24.,4.8,1.,4.8,1.,4.8
1979-07-03 21:11:22.340 ,4,1,0.,4.8,27.,4.8,3.,4.8,1.,4.8
1979-07-03 21:11:27.140 ,4,1,0.,4.8,22.,4.8,2.,4.8,1.,4.8
1979-07-03 21:11:31.940 ,4,1,0.,4.8,16.,4.8,1.,4.8,2.,4.8
1979-07-03 21:11:36.740 ,7,1,0.,4.8,11.,4.8,3.,4.8,0.,4.8
1979-07-03 21:11:41.540 ,7,1,0.,4.8,7.,4.8,3.,4.8,4.,4.8
1979-07-03 21:11:46.340 ,7,1,0.,4.8,7.,4.8,2.,4.8,2.,4.8
1979-07-03 21:11:51.140 ,7,1,0.,4.8,2.,4.8,1.,4.8,1.,4.8
1979-07-03 21:11:55.940 ,7,1,0.,4.8,1.,4.8,0.,4.8,0.,4.8
1979-07-03 21:12:00.740 ,3,1,0.,4.8,1.,4.8,2.,4.8,0.,4.8
1979-07-03 21:12:05.540 ,3,1,0.,4.8,10.,4.8,1.,4.8,3.,4.8
1979-07-03 21:12:10.340 ,3,1,1.,4.8,5.,4.8,1.,4.8,0.,4.8
1979-07-03 21:12:15.140 ,3,1,0.,4.8,7.,4.8,1.,4.8,1.,4.8
1979-07-03 21:12:19.940 ,3,1,0.,4.8,10.,4.8,4.,4.8,0.,4.8
1979-07-03 21:12:24.740 ,0,1,0.,4.8,23.,4.8,2.,4.8,0.,4.8
1979-07-03 21:12:29.540 ,0,1,0.,4.8,25.,4.8,1.,4.8,0.,4.8
1979-07-03 21:12:34.340 ,0,1,0.,4.8,31.,4.8,2.,4.8,0.,4.8
1979-07-03 21:12:39.140 ,0,1,0.,4.8,28.,4.8,2.,4.8,1.,4.8
1979-07-03 21:12:43.940 ,0,1,0.,4.8,33.,4.8,1.,4.8,0.,4.8
1979-07-03 21:12:48.740 ,4,1,0.,4.8,24.,4.8,1.,4.8,2.,4.8
1979-07-03 21:12:53.540 ,4,1,0.,4.8,35.,4.8,1.,4.8,0.,4.8
1979-07-03 21:12:58.340 ,4,1,0.,4.8,29.,4.8,1.,4.8,0.,4.8
1979-07-03 21:13:03.140 ,4,1,0.,4.8,19.,4.8,0.,4.8,0.,4.8
1979-07-03 21:13:07.940 ,4,1,0.,4.8,15.,4.8,2.,4.8,2.,4.8
1979-07-03 21:13:12.740 ,7,1,0.,4.8,16.,4.8,3.,4.8,0.,4.8
1979-07-03 21:13:17.540 ,7,1,0.,4.8,5.,4.8,2.,4.8,1.,4.8
1979-07-03 21:13:22.340 ,7,1,0.,4.8,5.,4.8,4.,4.8,1.,4.8
1979-07-03 21:13:27.140 ,7,1,0.,4.8,1.,4.8,2.,4.8,1.,4.8
1979-07-03 21:13:31.940 ,7,1,0.,4.8,0.,4.8,0.,4.8,0.,4.8
1979-07-03 21:13:36.740 ,3,1,0.,4.8,5.,4.8,0.,4.8,0.,4.8
1979-07-03 21:13:41.540 ,3,1,0.,4.8,6.,4.8,2.,4.8,3.,4.8
1979-07-03 21:13:46.340 ,3,1,0.,4.8,6.,4.8,0.,4.8,2.,4.8
1979-07-03 21:13:51.140 ,3,1,0.,4.8,8.,4.8,3.,4.8,3.,4.8
1979-07-03 21:13:55.940 ,3,1,0.,4.8,13.,4.8,2.,4.8,1.,4.8
1979-07-03 21:14:00.740 ,0,1,0.,4.8,11.,4.8,2.,4.8,1.,4.8
1979-07-03 21:14:05.540 ,0,1,0.,4.8,38.,4.8,2.,4.8,0.,4.8
1979-07-03 21:14:10.340 ,0,1,0.,4.8,46.,4.8,2.,4.8,0.,4.8
1979-07-03 21:14:15.140 ,0,1,0.,4.8,35.,4.8,4.,4.8,1.,4.8
1979-07-03 21:14:19.940 ,0,1,0.,4.8,21.,4.8,1.,4.8,2.,4.8
1979-07-03 21:14:24.740 ,4,1,0.,4.8,21.,4.8,3.,4.8,0.,4.8
1979-07-03 21:14:29.540 ,4,1,0.,4.8,28.,4.8,0.,4.8,1.,4.8
1979-07-03 21:14:34.340 ,4,1,0.,4.8,32.,4.8,3.,4.8,0.,4.8
1979-07-03 21:14:39.140 ,4,1,0.,4.8,22.,4.8,2.,4.8,0.,4.8
1979-07-03 21:14:43.940 ,4,1,0.,4.8,8.,4.8,1.,4.8,1.,4.8
1979-07-03 21:14:48.740 ,7,1,0.,4.8,10.,4.8,2.,4.8,1.,4.8
1979-07-03 21:14:53.540 ,7,1,0.,4.8,5.,4.8,2.,4.8,2.,4.8
1979-07-03 21:14:58.340 ,7,1,0.,4.8,3.,4.8,2.,4.8,2.,4.8
1979-07-03 21:15:03.140 ,7,1,0.,4.8,3.,4.8,1.,4.8,2.,4.8
1979-07-03 21:15:07.940 ,7,1,0.,4.8,1.,4.8,0.,4.8,0.,4.8
1979-07-03 21:15:12.740 ,3,1,0.,4.8,0.,4.8,1.,4.8,2.,4.8
1979-07-03 21:15:17.540 ,3,1,0.,4.8,0.,4.8,4.,4.8,1.,4.8
1979-07-03 21:15:22.340 ,3,1,2.,4.8,3.,4.8,2.,4.8,3.,4.8
1979-07-03 21:15:27.140 ,3,1,0.,4.8,8.,4.8,1.,4.8,1.,4.8
1979-07-03 21:15:31.940 ,3,1,0.,4.8,7.,4.8,0.,4.8,0.,4.8
1979-07-03 21:15:36.740 ,0,1,0.,4.8,19.,4.8,1.,4.8,1.,4.8
1979-07-03 21:15:41.540 ,0,1,0.,4.8,28.,4.8,2.,4.8,1.,4.8
1979-07-03 21:15:46.340 ,0,1,0.,4.8,32.,4.8,2.,4.8,0.,4.8
1979-07-03 21:15:51.140 ,0,1,0.,4.8,34.,4.8,0.,4.8,0.,4.8
1979-07-03 21:15:55.940 ,0,1,0.,4.8,18.,4.8,1.,4.8,0.,4.8
1979-07-03 21:16:00.740 ,4,1,0.,4.8,23.,4.8,1.,4.8,1.,4.8
1979-07-03 21:16:05.540 ,4,1,0.,4.8,30.,4.8,4.,4.8,0.,4.8
1979-07-03 21:16:10.340 ,4,1,0.,4.8,31.,4.8,4.,4.8,1.,4.8
1979-07-03 21:16:15.140 ,4,1,0.,4.8,20.,4.8,2.,4.8,3.,4.8
1979-07-03 21:16:19.940 ,4,1,0.,4.8,21.,4.8,1.,4.8,0.,4.8
1979-07-03 21:16:24.740 ,7,1,0.,4.8,7.,4.8,1.,4.8,1.,4.8
1979-07-03 21:16:29.540 ,7,1,0.,4.8,3.,4.8,1.,4.8,2.,4.8
1979-07-03 21:16:34.340 ,7,1,0.,4.8,6.,4.8,5.,4.8,3.,4.8
1979-07-03 21:16:39.140 ,7,1,0.,4.8,4.,4.8,1.,4.8,0.,4.8
1979-07-03 21:16:43.940 ,7,1,0.,4.8,0.,4.8,1.,4.8,0.,4.8
1979-07-03 21:16:48.740 ,3,1,0.,4.8,2.,4.8,1.,4.8,1.,4.8
1979-07-03 21:16:53.540 ,3,1,0.,4.8,5.,4.8,3.,4.8,1.,4.8
1979-07-03 21:16:58.340 ,3,1,0.,4.8,7.,4.8,0.,4.8,0.,4.8
1979-07-03 21:17:03.140 ,3,1,0.,4.8,14.,4.8,1.,4.8,0.,4.8
1979-07-03 21:17:07.940 ,3,1,0.,4.8,14.,4.8,2.,4.8,1.,4.8
1979-07-03 21:17:12.740 ,0,0,,0,,0,,0,,0
1979-07-03 21:17:17.540 ,0,0,,0,,0,,0,,0
1979-07-03 21:17:22.340 ,0,0,,0,,0,,0,,0
1979-07-03 21:17:27.140 ,0,0,,0,,0,,0,,0
1979-07-03 21:17:31.940 ,0,0,,0,,0,,0,,0
1979-07-03 21:19:59.540 ,0,0,,0,,0,,0,,0
1979-07-03 21:20:04.340 ,0,0,,0,,0,,0,,0
1979-07-03 21:20:09.140 ,0,0,,0,,0,,0,,0
1979-07-03 21:20:13.940 ,0,0,,0,,0,,0,,0
1979-07-03 21:20:18.740 ,0,0,,0,,0,,0,,0
1979-07-03 21:20:00.740 ,0,0,,0,,0,,0,,0
1979-07-03 21:20:05.540 ,0,0,0.,4.8,5.,4.8,2.,4.8,0.,4.8
1979-07-03 21:20:10.340 ,0,0,0.,4.8,19.,4.8,1.,4.8,0.,4.8
1979-07-03 21:20:15.140 ,0,0,,0,,0,,0,,0
1979-07-03 21:20:19.940 ,0,0,,0,,0,,0,,0
1979-07-03 21:20:24.740 ,0,0,,0,,0,,0,,0
1979-07-03 21:20:29.540 ,0,0,,0,,0,,0,,0
1979-07-03 21:20:34.340 ,0,0,0.,4.8,31.,4.8,1.,4.8,1.,4.8
1979-07-03 21:20:39.140 ,0,0,,0,,0,,0,,0
1979-07-03 21:20:43.940 ,0,0,,0,,0,,0,,0
1979-07-03 21:21:36.740 ,0,0,,0,,0,,0,,0
1979-07-03 21:21:41.540 ,0,0,,0,,0,,0,,0
1979-07-03 21:21:46.340 ,0,0,,0,,0,,0,,0
1979-07-03 21:21:51.140 ,0,0,,0,,0,,0,,0
1979-07-03 21:21:55.940 ,0,0,,0,,0,,0,,0
1979-07-03 21:22:00.740 ,0,0,,0,,0,,0,,0
1979-07-03 21:22:05.540 ,0,0,,0,,0,,0,,0
1979-07-03 21:22:10.340 ,0,0,,0,,0,,0,,0
1979-07-03 21:22:15.140 ,0,0,,0,,0,,0,,0
1979-07-03 21:22:19.940 ,0,0,,0,,0,,0,,0
1979-07-03 21:22:46.940 ,0,0,,0,,0,,0,,0
1979-07-03 21:22:51.740 ,0,0,,0,,0,,0,,0
1979-07-03 21:22:56.540 ,0,0,,0,,0,,0,,0
1979-07-03 21:23:01.340 ,0,0,,0,,0,,0,,0
1979-07-03 21:23:06.140 ,0,0,,0,,0,,0,,0
1979-07-03 21:22:48.740 ,0,0,,0,,0,,0,,0
1979-07-03 21:22:53.540 ,0,0,,0,,0,,0,,0
1979-07-03 21:22:58.340 ,0,0,,0,,0,,0,,0
1979-07-03 21:23:03.140 ,0,0,,0,,0,,0,,0
1979-07-03 21:23:07.940 ,0,0,,0,,0,,0,,0
1979-07-03 21:23:14.540 ,0,0,,0,,0,,0,,0
1979-07-03 21:23:19.340 ,0,0,1.,4.8,24.,4.8,3.,4.8,1.,4.8
1979-07-03 21:23:24.140 ,0,0,,0,,0,,0,,0
1979-07-03 21:23:28.940 ,0,0,,0,,0,,0,,0
1979-07-03 21:23:33.740 ,0,0,,0,,0,,0,,0
1979-07-03 21:23:36.740 ,0,0,,0,,0,,0,,0
1979-07-03 21:23:41.540 ,0,0,0.,4.8,25.,4.8,1.,4.8,1.,4.8
1979-07-03 21:23:46.340 ,0,0,0.,4.8,32.,4.8,3.,4.8,0.,4.8
1979-07-03 21:23:51.140 ,0,0,0.,4.8,21.,4.8,3.,4.8,1.,4.8
1979-07-03 21:23:55.940 ,0,0,0.,4.8,25.,4.8,2.,4.8,1.,4.8
1979-07-03 21:24:00.740 ,1,0,0.,4.8,31.,4.8,2.,4.8,1.,4.8
1979-07-03 21:24:05.540 ,1,0,0.,4.8,18.,4.8,1.,4.8,3.,4.8
1979-07-03 21:24:10.340 ,1,0,0.,4.8,24.,4.8,0.,4.8,1.,4.8
1979-07-03 21:24:15.140 ,1,0,0.,4.8,25.,4.8,1.,4.8,0.,4.8
1979-07-03 21:24:19.940 ,1,0,0.,4.8,31.,4.8,2.,4.8,1.,4.8
1979-07-03 21:24:24.740 ,1,0,0.,4.8,34.,4.8,2.,4.8,0.,4.8
1979-07-03 21:24:29.540 ,1,0,,0,,0,,0,,0
1979-07-03 21:24:34.340 ,1,0,0.,4.8,37.,4.8,4.,4.8,0.,4.8
1979-07-03 21:24:39.140 ,1,0,0.,4.8,27.,4.8,4.,4.8,1.,4.8
1979-07-03 21:24:43.940 ,1,0,0.,4.8,21.,4.8,5.,4.8,1.,4.8
1979-07-03 21:24:48.740 ,2,0,0.,4.8,32.,4.8,2.,4.8,1.,4.8
1979-07-03 21:24:53.540 ,2,0,0.,4.8,29.,4.8,0.,4.8,1.,4.8
1979-07-03 21:24:58.340 ,2,0,0.,4.8,21.,4.8,2.,4.8,1.,4.8
1979-07-03 21:25:03.140 ,2,0,0.,4.8,33.,4.8,2.,4.8,1.,4.8
1979-07-03 21:25:07.940 ,2,0,0.,4.8,24.,4.8,4.,4.8,0.,4.8
1979-07-03 21:25:12.740 ,2,0,0.,4.8,25.,4.8,1.,4.8,0.,4.8
1979-07-03 21:25:17.540 ,2,0,0.,4.8,30.,4.8,2.,4.8,1.,4.8
1979-07-03 21:25:22.340 ,2,0,0.,4.8,24.,4.8,0.,4.8,0.,4.8
1979-07-03 21:25:27.140 ,2,0,0.,4.8,22.,4.8,2.,4.8,0.,4.8
1979-07-03 21:25:31.940 ,2,0,0.,4.8,16.,4.8,0.,4.8,2.,4.8
1979-07-03 21:25:36.740 ,3,0,0.,4.8,24.,4.8,0.,4.8,0.,4.8
1979-07-03 21:25:41.540 ,3,0,0.,4.8,19.,4.8,0.,4.8,1.,4.8
1979-07-03 21:25:46.340 ,3,0,0.,4.8,25.,4.8,1.,4.8,2.,4.8
1979-07-03 21:25:51.140 ,3,0,0.,4.8,24.,4.8,1.,4.8,1.,4.8
1979-07-03 21:25:55.940 ,3,0,0.,4.8,22.,4.8,1.,4.8,1.,4.8
1979-07-03 21:26:00.740 ,3,0,0.,4.8,26.,4.8,0.,4.8,1.,4.8
1979-07-03 21:26:05.540 ,3,0,1.,4.8,15.,4.8,2.,4.8,2.,4.8
1979-07-03 21:26:10.340 ,3,0,0.,4.8,20.,4.8,1.,4.8,1.,4.8
1979-07-03 21:26:15.140 ,3,0,0.,4.8,19.,4.8,2.,4.8,0.,4.8
1979-07-03 21:26:19.940 ,3,0,0.,4.8,24.,4.8,0.,4.8,0.,4.8
1979-07-03 21:26:24.740 ,4,0,0.,4.8,18.,4.8,5.,4.8,0.,4.8
1979-07-03 21:26:29.540 ,4,0,0.,4.8,14.,4.8,1.,4.8,0.,4.8
1979-07-03 21:26:34.340 ,4,0,0.,4.8,10.,4.8,2.,4.8,1.,4.8
1979-07-03 21:26:39.140 ,4,0,0.,4.8,12.,4.8,3.,4.8,1.,4.8
1979-07-03 21:26:43.940 ,4,0,0.,4.8,15.,4.8,0.,4.8,1.,4.8
1979-07-03 21:26:48.740 ,4,0,0.,4.8,14.,4.8,0.,4.8,0.,4.8
1979-07-03 21:26:53.540 ,4,0,0.,4.8,15.,4.8,2.,4.8,1.,4.8
1979-07-03 21:26:58.340 ,4,0,0.,4.8,15.,4.8,1.,4.8,1.,4.8
1979-07-03 21:27:03.140 ,4,0,0.,4.8,23.,4.8,1.,4.8,0.,4.8
1979-07-03 21:27:07.940 ,4,0,0.,4.8,20.,4.8,4.,4.8,1.,4.8
1979-07-03 21:27:12.740 ,5,0,0.,4.8,8.,4.8,0.,4.8,2.,4.8
1979-07-03 21:27:17.540 ,5,0,0.,4.8,16.,4.8,0.,4.8,0.,4.8
1979-07-03 21:27:22.340 ,5,0,0.,4.8,20.,4.8,4.,4.8,1.,4.8
1979-07-03 21:27:27.140 ,5,0,0.,4.8,23.,4.8,2.,4.8,1.,4.8
1979-07-03 21:27:31.940 ,5,0,0.,4.8,16.,4.8,3.,4.8,0.,4.8
1979-07-03 21:27:36.740 ,5,0,0.,4.8,15.,4.8,5.,4.8,2.,4.8
1979-07-03 21:27:41.540 ,5,0,0.,4.8,24.,4.8,1.,4.8,3.,4.8
1979-07-03 21:27:46.340 ,5,0,0.,4.8,22.,4.8,1.,4.8,2.,4.8
1979-07-03 21:27:51.140 ,5,0,0.,4.8,15.,4.8,2.,4.8,2.,4.8
1979-07-03 21:27:55.940 ,5,0,0.,4.8,16.,4.8,1.,4.8,0.,4.8
1979-07-03 21:28:00.740 ,6,0,0.,4.8,20.,4.8,1.,4.8,4.,4.8
1979-07-03 21:28:05.540 ,6,0,0.,4.8,19.,4.8,3.,4.8,1.,4.8
1979-07-03 21:28:10.340 ,6,0,0.,4.8,26.,4.8,3.,4.8,1.,4.8
1979-07-03 21:28:15.140 ,6,0,0.,4.8,24.,4.8,3.,4.8,1.,4.8
1979-07-03 21:28:19.940 ,6,0,0.,4.8,24.,4.8,6.,4.8,2.,4.8
1979-07-03 21:28:24.740 ,6,0,0.,4.8,26.,4.8,1.,4.8,0.,4.8
1979-07-03 21:28:29.540 ,6,0,0.,4.8,26.,4.8,3.,4.8,2.,4.8
1979-07-03 21:28:34.340 ,6,0,0.,4.8,31.,4.8,1.,4.8,1.,4.8
1979-07-03 21:28:39.140 ,6,0,0.,4.8,29.,4.8,1.,4.8,4.,4.8
1979-07-03 21:28:43.940 ,6,0,0.,4.8,24.,4.8,2.,4.8,3.,4.8
1979-07-03 21:28:48.740 ,7,0,0.,4.8,29.,4.8,3.,4.8,0.,4.8
1979-07-03 21:28:53.540 ,7,0,0.,4.8,30.,4.8,2.,4.8,1.,4.8
1979-07-03 21:28:58.340 ,7,0,0.,4.8,5.,4.8,0.,4.8,0.,4.8
1979-07-03 21:29:03.140 ,7,0,0.,4.8,0.,4.8,0.,4.8,0.,4.8
1979-07-03 21:29:07.940 ,7,0,0.,4.8,0.,4.8,0.,4.8,0.,4.8
1979-07-03 21:29:12.740 ,7,0,0.,4.8,2.,4.8,1.,4.8,0.,4.8
1979-07-03 21:29:17.540 ,7,0,0.,4.8,0.,4.8,0.,4.8,0.,4.8
1979-07-03 21:29:22.340 ,7,0,0.,4.8,0.,4.8,0.,4.8,0.,4.8
1979-07-03 21:29:27.140 ,7,0,0.,4.8,1.,4.8,0.,4.8,0.,4.8
1979-07-03 21:29:31.940 ,7,0,0.,4.8,1.,4.8,0.,4.8,0.,4.8
1979-07-03 21:29:36.740 ,7,0,0.,4.8,0.,4.8,0.,4.8,0.,4.8
1979-07-03 21:29:41.540 ,7,0,0.,4.8,0.,4.8,0.,4.8,0.,4.8
1979-07-03 21:29:46.340 ,7,0,0.,4.8,0.,4.8,0.,4.8,0.,4.8
1979-07-03 21:29:51.140 ,7,0,0.,4.8,1.,4.8,0.,4.8,0.,4.8
1979-07-03 21:29:55.940 ,7,0,0.,4.8,1.,4.8,0.,4.8,0.,4.8
1979-07-03 21:30:00.740 ,7,0,0.,4.8,2.,4.8,0.,4.8,0.,4.8
1979-07-03 21:30:05.540 ,7,0,0.,4.8,0.,4.8,0.,4.8,0.,4.8
1979-07-03 21:30:10.340 ,7,0,0.,4.8,0.,4.8,0.,4.8,0.,4.8
1979-07-03 21:30:15.140 ,7,0,0.,4.8,0.,4.8,0.,4.8,0.,4.8
1979-07-03 21:30:19.940 ,7,0,0.,4.8,0.,4.8,0.,4.8,1.,4.8
1979-07-03 21:30:24.740 ,6,0,0.,4.8,3.,4.8,0.,4.8,0.,4.8
1979-07-03 21:30:29.540 ,6,0,0.,4.8,1.,4.8,0.,4.8,0.,4.8
1979-07-03 21:30:34.340 ,6,0,0.,4.8,13.,4.8,1.,4.8,2.,4.8
1979-07-03 21:30:39.140 ,6,0,0.,4.8,14.,4.8,2.,4.8,3.,4.8
1979-07-03 21:30:43.940 ,6,0,0.,4.8,18.,4.8,1.,4.8,1.,4.8
1979-07-03 21:30:48.740 ,6,0,0.,4.8,20.,4.8,3.,4.8,4.,4.8
1979-07-03 21:30:53.540 ,6,0,0.,4.8,16.,4.8,2.,4.8,3.,4.8
1979-07-03 21:30:58.340 ,6,0,0.,4.8,9.,4.8,2.,4.8,3.,4.8
1979-07-03 21:31:03.140 ,6,0,0.,4.8,14.,4.8,1.,4.8,0.,4.8
1979-07-03 21:31:07.940 ,6,0,0.,4.8,14.,4.8,1.,4.8,1.,4.8
1979-07-03 21:31:12.740 ,5,0,0.,4.8,10.,4.8,1.,4.8,0.,4.8
1979-07-03 21:31:17.540 ,5,0,0.,4.8,14.,4.8,1.,4.8,3.,4.8
1979-07-03 21:31:22.340 ,5,0,0.,4.8,9.,4.8,2.,4.8,0.,4.8
1979-07-03 21:31:27.140 ,5,0,0.,4.8,11.,4.8,1.,4.8,0.,4.8
1979-07-03 21:31:31.940 ,5,0,0.,4.8,9.,4.8,1.,4.8,2.,4.8
1979-07-03 21:31:36.740 ,5,0,0.,4.8,7.,4.8,1.,4.8,1.,4.8
1979-07-03 21:31:41.540 ,5,0,0.,4.8,10.,4.8,2.,4.8,3.,4.8
1979-07-03 21:31:46.340 ,5,0,0.,4.8,6.,4.8,3.,4.8,0.,4.8
1979-07-03 21:31:51.140 ,5,0,0.,4.8,8.,4.8,3.,4.8,2.,4.8
1979-07-03 21:31:55.940 ,5,0,0.,4.8,9.,4.8,0.,4.8,2.,4.8
1979-07-03 21:32:00.740 ,4,0,0.,4.8,8.,4.8,2.,4.8,0.,4.8
1979-07-03 21:32:05.540 ,4,0,0.,4.8,8.,4.8,2.,4.8,3.,4.8
1979-07-03 21:32:10.340 ,4,0,0.,4.8,29.,4.8,3.,4.8,0.,4.8
1979-07-03 21:32:15.140 ,4,0,0.,4.8,29.,4.8,0.,4.8,1.,4.8
1979-07-03 21:32:19.940 ,4,0,0.,4.8,30.,4.8,2.,4.8,0.,4.8
1979-07-03 21:32:24.740 ,4,0,0.,4.8,30.,4.8,2.,4.8,1.,4.8
1979-07-03 21:32:29.540 ,4,0,0.,4.8,19.,4.8,2.,4.8,0.,4.8
1979-07-03 21:32:34.340 ,4,0,0.,4.8,27.,4.8,5.,4.8,2.,4.8
1979-07-03 21:32:39.140 ,4,0,0.,4.8,33.,4.8,2.,4.8,3.,4.8
1979-07-03 21:32:43.940 ,4,0,0.,4.8,14.,4.8,2.,4.8,2.,4.8
1979-07-03 21:32:48.740 ,3,0,0.,4.8,23.,4.8,1.,4.8,0.,4.8
1979-07-03 21:32:53.540 ,3,0,0.,4.8,21.,4.8,2.,4.8,0.,4.8
1979-07-03 21:32:58.340 ,3,0,0.,4.8,16.,4.8,0.,4.8,0.,4.8
1979-07-03 21:33:03.140 ,3,0,0.,4.8,11.,4.8,3.,4.8,0.,4.8
1979-07-03 21:33:07.940 ,3,0,0.,4.8,28.,4.8,0.,4.8,0.,4.8
1979-07-03 21:33:12.740 ,3,0,0.,4.8,29.,4.8,1.,4.8,1.,4.8
1979-07-03 21:33:17.540 ,3,0,0.,4.8,29.,4.8,1.,4.8,0.,4.8
1979-07-03 21:33:22.340 ,3,0,0.,4.8,29.,4.8,2.,4.8,4.,4.8
1979-07-03 21:33:27.140 ,3,0,0.,4.8,21.,4.8,1.,4.8,1.,4.8
1979-07-03 21:33:31.940 ,3,0,0.,4.8,18.,4.8,4.,4.8,0.,4.8
1979-07-03 21:33:36.740 ,2,0,0.,4.8,22.,4.8,1.,4.8,0.,4.8
1979-07-03 21:33:41.540 ,2,0,0.,4.8,16.,4.8,0.,4.8,1.,4.8
1979-07-03 21:33:46.340 ,2,0,0.,4.8,24.,4.8,1.,4.8,1.,4.8
1979-07-03 21:33:51.140 ,2,0,0.,4.8,27.,4.8,3.,4.8,1.,4.8
1979-07-03 21:33:55.940 ,2,0,0.,4.8,31.,4.8,0.,4.8,0.,4.8
1979-07-03 21:34:00.740 ,2,0,0.,4.8,28.,4.8,1.,4.8,0.,4.8
1979-07-03 21:34:05.540 ,2,0,0.,4.8,20.,4.8,3.,4.8,0.,4.8
1979-07-03 21:34:10.340 ,2,0,0.,4.8,34.,4.8,1.,4.8,0.,4.8
1979-07-03 21:34:15.140 ,2,0,0.,4.8,24.,4.8,0.,4.8,1.,4.8
1979-07-03 21:34:19.940 ,2,0,0.,4.8,35.,4.8,2.,4.8,0.,4.8
1979-07-03 21:34:24.740 ,1,0,0.,4.8,34.,4.8,0.,4.8,2.,4.8
1979-07-03 21:34:29.540 ,1,0,0.,4.8,25.,4.8,2.,4.8,0.,4.8
1979-07-03 21:34:34.340 ,1,0,0.,4.8,19.,4.8,0.,4.8,0.,4.8
1979-07-03 21:34:39.140 ,1,0,0.,4.8,36.,4.8,1.,4.8,1.,4.8
1979-07-03 21:34:43.940 ,1,0,0.,4.8,36.,4.8,2.,4.8,0.,4.8
1979-07-03 21:34:48.740 ,1,0,0.,4.8,25.,4.8,1.,4.8,0.,4.8
1979-07-03 21:34:53.540 ,1,0,0.,4.8,34.,4.8,1.,4.8,0.,4.8
1979-07-03 21:34:58.340 ,1,0,0.,4.8,28.,4.8,2.,4.8,0.,4.8
1979-07-03 21:35:03.140 ,1,0,0.,4.8,29.,4.8,2.,4.8,0.,4.8
1979-07-03 21:35:07.940 ,1,0,0.,4.8,39.,4.8,1.,4.8,0.,4.8
1979-07-03 21:35:12.740 ,0,0,0.,4.8,31.,4.8,0.,4.8,2.,4.8
1979-07-03 21:35:17.540 ,0,0,0.,4.8,32.,4.8,1.,4.8,0.,4.8
1979-07-03 21:35:22.340 ,0,0,0.,4.8,30.,4.8,1.,4.8,3.,4.8
1979-07-03 21:35:27.140 ,0,0,0.,4.8,31.,4.8,1.,4.8,0.,4.8
1979-07-03 21:35:31.940 ,0,0,0.,4.8,31.,4.8,2.,4.8,0.,4.8
1979-07-03 21:35:36.740 ,0,0,0.,4.8,26.,4.8,2.,4.8,2.,4.8
1979-07-03 21:35:41.540 ,0,0,0.,4.8,27.,4.8,2.,4.8,0.,4.8
1979-07-03 21:35:46.340 ,0,0,0.,4.8,31.,4.8,0.,4.8,0.,4.8
1979-07-03 21:35:51.140 ,0,0,0.,4.8,25.,4.8,1.,4.8,0.,4.8
1979-07-03 21:35:55.940 ,0,0,0.,4.8,24.,4.8,3.,4.8,2.,4.8
1979-07-03 21:36:00.740 ,0,0,0.,4.8,26.,4.8,0.,4.8,0.,4.8
1979-07-03 21:36:05.540 ,0,0,0.,4.8,25.,4.8,1.,4.8,1.,4.8
1979-07-03 21:36:10.340 ,0,0,0.,4.8,28.,4.8,3.,4.8,1.,4.8
1979-07-03 21:36:15.140 ,0,0,0.,4.8,24.,4.8,2.,4.8,2.,4.8
1979-07-03 21:36:19.940 ,0,0,0.,4.8,23.,4.8,1.,4.8,0.,4.8
1979-07-03 21:36:24.740 ,0,0,0.,4.8,31.,4.8,2.,4.8,0.,4.8
1979-07-03 21:36:29.540 ,0,0,0.,4.8,32.,4.8,0.,4.8,0.,4.8
1979-07-03 21:36:34.340 ,0,0,0.,4.8,31.,4.8,2.,4.8,1.,4.8
1979-07-03 21:36:39.140 ,0,0,0.,4.8,37.,4.8,3.,4.8,5.,4.8
1979-07-03 21:36:43.940 ,0,0,0.,4.8,32.,4.8,1.,4.8,0.,4.8
1979-07-03 21:36:48.740 ,1,0,0.,4.8,37.,4.8,1.,4.8,0.,4.8
1979-07-03 21:36:53.540 ,1,0,0.,4.8,19.,4.8,3.,4.8,0.,4.8
1979-07-03 21:36:58.340 ,1,0,0.,4.8,36.,4.8,2.,4.8,1.,4.8
1979-07-03 21:37:03.140 ,1,0,0.,4.8,34.,4.8,2.,4.8,1.,4.8
1979-07-03 21:37:07.940 ,1,0,0.,4.8,31.,4.8,1.,4.8,0.,4.8
1979-07-03 21:37:12.740 ,1,0,0.,4.8,38.,4.8,1.,4.8,1.,4.8
1979-07-03 21:37:17.540 ,1,0,0.,4.8,31.,4.8,3.,4.8,1.,4.8
1979-07-03 21:37:22.340 ,1,0,0.,4.8,26.,4.8,1.,4.8,0.,4.8
1979-07-03 21:37:27.140 ,1,0,0.,4.8,38.,4.8,2.,4.8,2.,4.8
1979-07-03 21:37:31.940 ,1,0,0.,4.8,39.,4.8,2.,4.8,0.,4.8
1979-07-03 21:37:36.740 ,2,0,0.,4.8,29.,4.8,0.,4.8,0.,4.8
1979-07-03 21:37:41.540 ,2,0,0.,4.8,20.,4.8,3.,4.8,1.,4.8
1979-07-03 21:37:46.340 ,2,0,0.,4.8,33.,4.8,1.,4.8,0.,4.8
1979-07-03 21:37:51.140 ,2,0,0.,4.8,33.,4.8,2.,4.8,0.,4.8
1979-07-03 21:37:55.940 ,2,0,0.,4.8,27.,4.8,1.,4.8,0.,4.8
1979-07-03 21:38:00.740 ,2,0,0.,4.8,28.,4.8,3.,4.8,1.,4.8
1979-07-03 21:38:05.540 ,2,0,0.,4.8,33.,4.8,2.,4.8,0.,4.8
1979-07-03 21:38:10.340 ,2,0,0.,4.8,35.,4.8,0.,4.8,0.,4.8
1979-07-03 21:38:15.140 ,2,0,0.,4.8,23.,4.8,1.,4.8,1.,4.8